レモン-パンスターズ彗星

302P/Lemmon-PanSTARRS (2016)

English version
Home page
Updated on March 6, 2020

---------------------------------------------------------------------

・ プロフィール

符号 302P/2014 K2
発見日 2014年5月21日
発見光度 21.4等
発見者 Pan-STARRS 1 telescope (Haleakala)

・ 写真集

・ 軌道要素

Epoch 2016 May 12.0 TT = JDT 2457520.5                                          
T 2016 Apr. 30.53458 TT                                 Bell                    
q   3.3022571            (2000.0)            P               Q                  
n   0.11130474     Peri.  208.28069     +0.86435310     +0.49489145             
a   4.2801627      Node   121.78316     -0.43932166     +0.82952189             
e   0.2284739      Incl.    6.03085     -0.24472473     +0.25879699             
P   8.86                                                                        
From 131 observations 2007 Aug. 16-2020 Feb. 2, mean residual 0".5.             

・ 光度変化

        m1 = 10.7 + 5 logΔ + 10.0 log r(t - 450)

---------------------------------------------------------------------

軌道要素はM.P.E.C. 2020-C98に掲載されたものです。
光度グラフはComet for Windowsで作成したものです。

---------------------------------------------------------------------

Copyright(C) Seiichi Yoshida (comet@aerith.net). All rights reserved.